| time (UTC) | temp F | wind direction | speed MPH | gust MPH | rain 1hr in | rain 24hr in | rain mn in | humidity % | barometer mb |
| 20260903101746 | 73 | 147 | 1.0 | 7.0 | 0.00 | 0.00 | 0.00 | 79 | 1021.2 |
| 20260903100746 | 72 | 126 | 5.0 | 6.0 | 0.00 | 0.00 | 0.00 | 80 | 1020.9 |
| 20260903095746 | 72 | 153 | 0.0 | 4.0 | 0.00 | 0.00 | 0.00 | 81 | 1021.0 |
| 20260903094746 | 72 | 48 | 0.0 | 2.0 | 0.00 | 0.00 | 0.00 | 78 | 1020.9 |
| 20260903093746 | 70 | 33 | 1.0 | 3.0 | 0.00 | 0.00 | 0.00 | 82 | 1021.0 |
| 20260903092746 | 70 | 16 | 0.0 | 3.0 | 0.00 | 0.00 | 0.00 | 84 | 1020.9 |
| 20260903091746 | 70 | 155 | 2.0 | 3.0 | 0.00 | 0.00 | 0.00 | 85 | 1021.0 |
| 20260903090746 | 70 | 350 | 0.0 | 4.0 | 0.00 | 0.00 | 0.00 | 86 | 1020.8 |
| 20260903085746 | 70 | 135 | 2.0 | 3.0 | 0.00 | 0.00 | 0.00 | 84 | 1020.7 |
| 20260903084746 | 69 | 97 | 1.0 | 2.0 | 0.00 | 0.00 | 0.00 | 86 | 1020.5 |
| 20260903083746 | 67 | 354 | 1.0 | 2.0 | 0.00 | 0.00 | 0.00 | 83 | 1020.6 |
| 20260903082746 | 68 | 352 | 1.0 | 2.0 | 0.00 | 0.00 | 0.00 | 84 | 1020.4 |
| 20260903081746 | 67 | 339 | 1.0 | 4.0 | 0.00 | 0.00 | 0.00 | 80 | 1020.4 |
| 20260903080746 | 67 | 2 | 2.0 | 4.0 | 0.00 | 0.00 | 0.00 | 78 | 1020.3 |
| 20260903075734 | 67 | 356 | 3.0 | 4.0 | 0.00 | 0.00 | 0.00 | 79 | 1020.2 |
| 20260903075211 | 67 | 353 | 4.0 | 6.0 | 0.00 | 0.00 | 0.00 | 77 | 1020.3 |
| 20260903073734 | 65 | 355 | 3.0 | 4.0 | 0.00 | 0.00 | 0.00 | 80 | 1020.2 |
| 20260903072733 | 65 | 352 | 2.0 | 4.0 | 0.00 | 0.00 | 0.00 | 85 | 1020.3 |
| 20260903072219 | 65 | 341 | 2.0 | 4.0 | 0.00 | 0.00 | 0.00 | 86 | 1020.4 |
| 20260903070733 | 65 | 337 | 2.0 | 4.0 | 0.00 | 0.00 | 0.00 | 89 | 1020.1 |
| 20260903070215 | 65 | 355 | 3.0 | 3.0 | 0.00 | 0.00 | 0.00 | 88 | 1020.2 |
| 20260903065220 | 65 | 331 | 2.0 | 4.0 | 0.00 | 0.00 | 0.00 | 87 | 1019.9 |
| 20260903063734 | 65 | 344 | 2.0 | 3.0 | 0.00 | 0.00 | 0.00 | 87 | 1019.9 |
| 20260903062734 | 64 | 325 | 2.0 | 3.0 | 0.00 | 0.00 | 0.00 | 86 | 1019.6 |
| 20260903061734 | 65 | 339 | 1.0 | 6.0 | 0.00 | 0.00 | 0.00 | 86 | 1019.5 |
| 20260903061212 | 64 | 346 | 2.0 | 4.0 | 0.00 | 0.00 | 0.00 | 87 | 1019.5 |
| 20260903055734 | 65 | 346 | 1.0 | 3.0 | 0.00 | 0.00 | 0.00 | 83 | 1019.0 |
| 20260903054735 | 64 | 326 | 2.0 | 4.0 | 0.00 | 0.00 | 0.00 | 82 | 1018.9 |
| 20260903053735 | 64 | 337 | 3.0 | 4.0 | 0.00 | 0.00 | 0.00 | 82 | 1018.6 |
| 20260903052733 | 64 | 346 | 3.0 | 3.0 | 0.00 | 0.00 | 0.00 | 82 | 1018.5 |
| 20260903051735 | 65 | 338 | 3.0 | 6.0 | 0.00 | 0.00 | 0.00 | 84 | 1018.5 |
| 20260903050734 | 64 | 323 | 2.0 | 4.0 | 0.00 | 0.00 | 0.00 | 85 | 1018.9 |
| 20260903045734 | 65 | 349 | 2.0 | 6.0 | 0.00 | 0.00 | 0.00 | 83 | 1018.7 |
| 20260903044734 | 65 | 333 | 3.0 | 4.0 | 0.00 | 0.00 | 0.00 | 86 | 1018.9 |
| 20260903043735 | 65 | 356 | 1.0 | 3.0 | 0.00 | 0.00 | 0.00 | 87 | 1018.7 |
| 20260903042733 | 65 | 358 | 2.0 | 3.0 | 0.00 | 0.00 | 0.00 | 86 | 1018.8 |
| 20260903041734 | 65 | 336 | 2.0 | 3.0 | 0.00 | 0.00 | 0.00 | 87 | 1018.7 |
| 20260903040735 | 65 | 342 | 1.0 | 3.0 | 0.00 | 0.00 | 0.00 | 85 | 1019.0 |
| 20260903035734 | 64 | 341 | 2.0 | 3.0 | 0.00 | 0.00 | 0.00 | 79 | 1018.8 |
| 20260903034734 | 64 | 335 | 2.0 | 4.0 | 0.00 | 0.00 | 0.00 | 81 | 1018.7 |
| 20260903034256 | 65 | 341 | 2.0 | 6.0 | 0.00 | 0.00 | 0.00 | 82 | 1018.7 |
| 20260903034139 | 66 | 354 | 3.0 | 4.0 | 0.00 | 0.00 | 0.00 | 85 | 1018.7 |
| 20260903031734 | 66 | 336 | 2.0 | 4.0 | 0.00 | 0.00 | 0.00 | 85 | 1018.9 |
| 20260903030734 | 65 | 349 | 2.0 | 3.0 | 0.00 | 0.00 | 0.00 | 84 | 1019.1 |
| 20260903025734 | 65 | 350 | 1.0 | 3.0 | 0.00 | 0.00 | 0.00 | 84 | 1019.1 |
| 20260903024734 | 65 | 347 | 2.0 | 4.0 | 0.00 | 0.00 | 0.00 | 83 | 1019.0 |
| 20260903023734 | 65 | 345 | 2.0 | 4.0 | 0.00 | 0.00 | 0.00 | 83 | 1019.0 |
| 20260903022733 | 65 | 1 | 4.0 | 4.0 | 0.00 | 0.00 | 0.00 | 83 | 1019.1 |
| 20260903021734 | 66 | 14 | 2.0 | 3.0 | 0.00 | 0.00 | 0.00 | 84 | 1019.1 |
| 20260903021120 | 65 | 337 | 2.0 | 6.0 | 0.00 | 0.00 | 0.00 | 84 | 1019.1 |
| 20260903020757 | 65 | 343 | 2.0 | 4.0 | 0.00 | 0.00 | 0.00 | 83 | 1019.4 |
| 20260903014734 | 65 | 343 | 3.0 | 6.0 | 0.00 | 0.00 | 0.00 | 83 | 1019.2 |
| 20260903013734 | 65 | 337 | 3.0 | 4.0 | 0.00 | 0.00 | 0.00 | 87 | 1019.4 |
| 20260903012733 | 65 | 356 | 3.0 | 4.0 | 0.00 | 0.00 | 0.00 | 87 | 1019.6 |
| 20260903011735 | 66 | 3 | 2.0 | 3.0 | 0.00 | 0.00 | 0.00 | 87 | 1019.6 |
| 20260903010734 | 66 | 342 | 2.0 | 4.0 | 0.00 | 0.00 | 0.00 | 87 | 1019.7 |
| 20260903005734 | 66 | 342 | 2.0 | 4.0 | 0.00 | 0.00 | 0.00 | 87 | 1019.5 |
| 20260903004733 | 66 | 342 | 2.0 | 4.0 | 0.00 | 0.00 | 0.00 | 86 | 1019.8 |
| 20260903003734 | 66 | 346 | 3.0 | 6.0 | 0.00 | 0.00 | 0.00 | 85 | 1019.8 |
| 20260903002734 | 66 | 338 | 4.0 | 6.0 | 0.00 | 0.00 | 0.00 | 86 | 1020.0 |
| 20260903001734 | 67 | 339 | 3.0 | 4.0 | 0.00 | 0.00 | 0.00 | 87 | 1020.2 |
| 20260903000734 | 67 | 342 | 2.0 | 3.0 | 0.00 | 0.00 | 0.00 | 86 | 1020.0 |
| 20260902235733 | 67 | 9 | 1.0 | 3.0 | 0.00 | 0.00 | 0.00 | 86 | 1019.9 |
| 20260902234734 | 67 | 334 | 2.0 | 6.0 | 0.00 | 0.00 | 0.00 | 86 | 1020.0 |
| 20260902234210 | 67 | 4 | 3.0 | 7.0 | 0.00 | 0.00 | 0.00 | 86 | 1020.3 |
| 20260902232734 | 67 | 336 | 2.0 | 6.0 | 0.00 | 0.00 | 0.00 | 86 | 1020.1 |
| 20260902231734 | 67 | 344 | 2.0 | 4.0 | 0.00 | 0.00 | 0.00 | 87 | 1020.3 |
| 20260902231213 | 67 | 346 | 3.0 | 6.0 | 0.00 | 0.00 | 0.00 | 87 | 1020.2 |
| 20260902225734 | 67 | 11 | 3.0 | 6.0 | 0.00 | 0.00 | 0.00 | 86 | 1020.2 |
| 20260902224733 | 68 | 9 | 3.0 | 4.0 | 0.00 | 0.00 | 0.00 | 87 | 1020.3 |
| 20260902223734 | 68 | 334 | 2.0 | 4.0 | 0.00 | 0.00 | 0.00 | 87 | 1020.6 |
| 20260902222734 | 69 | 20 | 2.0 | 3.0 | 0.00 | 0.00 | 0.00 | 86 | 1020.7 |
| 20260902221735 | 68 | 337 | 1.0 | 2.0 | 0.00 | 0.00 | 0.00 | 86 | 1020.5 |
| 20260902220733 | 68 | 332 | 0.0 | 2.0 | 0.00 | 0.00 | 0.00 | 87 | 1020.6 |
| 20260902220649 | 67 | 340 | 2.0 | 2.0 | 0.00 | 0.00 | 0.00 | 85 | 1020.6 |
| 20260902214736 | 67 | 333 | 1.0 | 3.0 | 0.00 | 0.00 | 0.00 | 87 | 1020.4 |
| 20260902213734 | 67 | 344 | 1.0 | 3.0 | 0.00 | 0.00 | 0.00 | 86 | 1020.2 |
| 20260902212734 | 67 | 346 | 2.0 | 3.0 | 0.00 | 0.00 | 0.00 | 86 | 1020.3 |
| 20260902211734 | 67 | 333 | 2.0 | 3.0 | 0.00 | 0.00 | 0.00 | 87 | 1020.1 |
| 20260902210733 | 67 | 341 | 0.0 | 3.0 | 0.00 | 0.00 | 0.00 | 85 | 1019.8 |
| 20260902205735 | 67 | 350 | 1.0 | 3.0 | 0.00 | 0.00 | 0.00 | 86 | 1019.8 |
| 20260902204734 | 67 | 348 | 2.0 | 3.0 | 0.00 | 0.00 | 0.00 | 88 | 1019.7 |
| 20260902203734 | 68 | 337 | 1.0 | 3.0 | 0.00 | 0.00 | 0.00 | 87 | 1019.8 |
| 20260902203215 | 69 | 48 | 0.0 | 2.0 | 0.00 | 0.00 | 0.00 | 88 | 1019.7 |
| 20260902201733 | 68 | 338 | 2.0 | 3.0 | 0.00 | 0.00 | 0.00 | 86 | 1019.5 |
| 20260902200733 | 69 | 339 | 0.0 | 2.0 | 0.00 | 0.00 | 0.00 | 87 | 1019.5 |
| 20260902195734 | 69 | 338 | 2.0 | 2.0 | 0.00 | 0.00 | 0.00 | 86 | 1019.6 |
| 20260902195211 | 69 | 333 | 0.0 | 3.0 | 0.00 | 0.00 | 0.00 | 86 | 1019.4 |
| 20260902194224 | 69 | 353 | 2.0 | 3.0 | 0.00 | 0.00 | 0.00 | 86 | 1019.2 |
| 20260902193213 | 69 | 343 | 2.0 | 2.0 | 0.00 | 0.00 | 0.00 | 88 | 1019.2 |
| 20260902191734 | 69 | 357 | 2.0 | 2.0 | 0.00 | 0.00 | 0.00 | 88 | 1019.1 |
| 20260902190734 | 70 | 320 | 0.0 | 2.0 | 0.00 | 0.00 | 0.00 | 88 | 1019.4 |
| 20260902185735 | 70 | 113 | 0.0 | 2.0 | 0.00 | 0.00 | 0.00 | 88 | 1019.5 |
| 20260902185221 | 71 | 227 | 1.0 | 2.0 | 0.00 | 0.00 | 0.00 | 87 | 1019.5 |
| 20260902184209 | 71 | 131 | 1.0 | 3.0 | 0.00 | 0.00 | 0.00 | 87 | 1019.4 |
| 20260902182735 | 71 | 154 | 0.0 | 3.0 | 0.00 | 0.00 | 0.00 | 86 | 1019.6 |
| 20260902181734 | 71 | 181 | 0.0 | 3.0 | 0.00 | 0.00 | 0.00 | 86 | 1019.5 |
| 20260902180735 | 71 | 140 | 1.0 | 6.0 | 0.00 | 0.00 | 0.00 | 86 | 1019.5 |
| 20260902175735 | 72 | 148 | 1.0 | 4.0 | 0.00 | 0.00 | 0.00 | 86 | 1019.5 |
| 20260902174734 | 71 | 63 | 0.0 | 6.0 | 0.00 | 0.00 | 0.00 | 87 | 1019.8 |
| 20260902173734 | 71 | 190 | 2.0 | 6.0 | 0.00 | 0.00 | 0.00 | 87 | 1019.8 |
| 20260902172734 | 71 | 88 | 4.0 | 6.0 | 0.00 | 0.00 | 0.00 | 86 | 1019.8 |
| 20260902171734 | 71 | 109 | 1.0 | 6.0 | 0.00 | 0.00 | 0.00 | 86 | 1019.7 |
| 20260902170734 | 71 | 90 | 3.0 | 4.0 | 0.00 | 0.00 | 0.00 | 86 | 1019.7 |
| 20260902165734 | 71 | 112 | 3.0 | 6.0 | 0.00 | 0.00 | 0.00 | 86 | 1019.8 |
| 20260902165220 | 72 | 128 | 1.0 | 7.0 | 0.00 | 0.00 | 0.00 | 86 | 1020.1 |
| 20260902164649 | 72 | 84 | 3.0 | 7.0 | 0.00 | 0.00 | 0.00 | 85 | 1020.0 |
| 20260902162734 | 72 | 135 | 5.0 | 6.0 | 0.00 | 0.00 | 0.00 | 84 | 1019.9 |
| 20260902161734 | 73 | 136 | 5.0 | 7.0 | 0.00 | 0.00 | 0.00 | 84 | 1019.9 |
| 20260902161216 | 72 | 135 | 4.0 | 6.0 | 0.00 | 0.00 | 0.00 | 85 | 1020.1 |
| 20260902155734 | 72 | 131 | 1.0 | 6.0 | 0.00 | 0.00 | 0.00 | 85 | 1020.2 |
| 20260902155702 | 73 | 194 | 2.0 | 6.0 | 0.00 | 0.00 | 0.00 | 83 | 1020.5 |
| 20260902153733 | 73 | 184 | 3.0 | 7.0 | 0.00 | 0.00 | 0.00 | 82 | 1020.4 |
| 20260902152734 | 73 | 98 | 2.0 | 8.0 | 0.00 | 0.00 | 0.00 | 83 | 1020.4 |
| 20260902151734 | 72 | 161 | 2.0 | 7.0 | 0.00 | 0.00 | 0.00 | 83 | 1020.4 |
| 20260902150737 | 73 | 119 | 4.0 | 6.0 | 0.00 | 0.00 | 0.00 | 82 | 1020.6 |
| 20260902145736 | 73 | 54 | 2.0 | 7.0 | 0.00 | 0.00 | 0.00 | 82 | 1020.5 |
| 20260902144735 | 73 | 167 | 7.0 | 8.0 | 0.00 | 0.00 | 0.00 | 81 | 1020.7 |
| 20260902143734 | 73 | 152 | 1.0 | 8.0 | 0.00 | 0.00 | 0.00 | 81 | 1020.7 |
| 20260902142734 | 73 | 114 | 4.0 | 7.0 | 0.00 | 0.00 | 0.00 | 82 | 1020.9 |
| 20260902141733 | 73 | 197 | 6.0 | 7.0 | 0.00 | 0.00 | 0.00 | 80 | 1020.8 |
| 20260902140734 | 73 | 150 | 4.0 | 8.0 | 0.00 | 0.00 | 0.00 | 79 | 1021.0 |
| 20260902135734 | 74 | 133 | 5.0 | 9.0 | 0.00 | 0.00 | 0.00 | 79 | 1020.9 |
| 20260902135211 | 75 | 205 | 4.0 | 9.0 | 0.00 | 0.00 | 0.00 | 76 | 1021.1 |
| 20260902133734 | 76 | 153 | 3.0 | 10.0 | 0.00 | 0.00 | 0.00 | 75 | 1020.9 |
| 20260902132734 | 77 | 117 | 5.0 | 11.0 | 0.00 | 0.00 | 0.00 | 73 | 1020.9 |
| 20260902132251 | 77 | 129 | 7.0 | 10.0 | 0.00 | 0.00 | 0.00 | 74 | 1020.8 |
| 20260902132155 | 76 | 180 | 4.0 | 9.0 | 0.00 | 0.00 | 0.00 | 74 | 1020.8 |
| 20260902125734 | 76 | 101 | 1.0 | 10.0 | 0.00 | 0.00 | 0.00 | 75 | 1020.8 |
| 20260902124735 | 76 | 69 | 2.0 | 9.0 | 0.00 | 0.00 | 0.00 | 75 | 1020.8 |
| 20260902123734 | 76 | 125 | 5.0 | 13.0 | 0.00 | 0.00 | 0.00 | 75 | 1021.1 |
| 20260902123212 | 76 | 97 | 3.0 | 13.0 | 0.00 | 0.00 | 0.00 | 74 | 1021.1 |
| 20260902121734 | 76 | 155 | 6.0 | 9.0 | 0.00 | 0.00 | 0.00 | 71 | 1021.1 |
| 20260902121216 | 76 | 161 | 4.0 | 9.0 | 0.00 | 0.00 | 0.00 | 73 | 1021.0 |
| 20260902115734 | 75 | 111 | 5.0 | 10.0 | 0.00 | 0.00 | 0.00 | 74 | 1021.0 |
| 20260902114734 | 76 | 102 | 5.0 | 9.0 | 0.00 | 0.00 | 0.00 | 71 | 1021.1 |
| 20260902113734 | 76 | 90 | 7.0 | 8.0 | 0.00 | 0.00 | 0.00 | 72 | 1021.2 |
| 20260902112734 | 77 | 149 | 3.0 | 8.0 | 0.00 | 0.00 | 0.00 | 70 | 1021.2 |
| 20260902111734 | 76 | 139 | 6.0 | 8.0 | 0.00 | 0.00 | 0.00 | 70 | 1021.2 |
| 20260902110734 | 76 | 124 | 6.0 | 8.0 | 0.00 | 0.00 | 0.00 | 72 | 1021.1 |
| 20260902105734 | 76 | 106 | 6.0 | 7.0 | 0.00 | 0.00 | 0.00 | 70 | 1021.2 |
| 20260902104733 | 76 | 82 | 5.0 | 9.0 | 0.00 | 0.00 | 0.00 | 70 | 1021.3 |
| 20260902103734 | 75 | 185 | 4.0 | 7.0 | 0.00 | 0.00 | 0.00 | 72 | 1021.3 |